Location: Munkebjergskolens Observatorium
(55.3864°N, 10.3987°E)
Time: 23:25:01
(UTC+01:00)

Envisat - Pass Details

Date: 05 December 2022
Orbit: 763 x 765 km, 98.2° (Epoch: 01 February)

Event Time Altitude Azimuth Distance (km) Brightness Sun altitude
Rises 17:05:48 0° 217° (SW) 3,225 7.5 -9.8°
Reaches altitude 10° 17:09:03 10° 239° (WSW) 2,305 7.1 -10.2°
Maximum altitude 17:12:03 16° 275° (W) 1,950 6.0 -10.6°
Drops below altitude 10° 17:15:03 10° 312° (NW) 2,315 5.8 -11.0°
Sets 17:18:21 0° 334° (NNW) 3,248 6.3 -11.5°
